Regional Weather Roundup
Issued by NWS

Home | Current Version | Previous Version | Text Only | Print | Product List | Glossary Off
Versions: 1 2 3 4 5 6 7 8 9 10 11 12 13 14 15 16 17 18 19 20 21 22 23 24 25 26 27 28 29 30 31 32 33 34 35 36 37 38 39 40 41 42 43 44 45 46 47 48 49 50

000
ASUS43 KDMX 221506
RWRIA

WEATHER ROUNDUP FOR IOWA
NATIONAL WEATHER SERVICE DES MOINES IA
900 AM CST WED FEB 22 2017

NOTE: "FAIR" INDICATES FEW OR NO CLOUDS BELOW 12,000 FEET WITH NO
SIGNIFICANT WEATHER AND/OR OBSTRUCTIONS TO VISIBILITY.

* - THESE STATIONS ARE NOT NWS STATIONS...THUS NOT UNDER NWS
QUALITY CONTROL.  THEY ALSO DO NOT REPORT WEATHER SUCH
AS PRECIPITATION OR FOG.

IAZ001>003-012>014-020>022-031>034-043>046-221600-
   NORTHWEST IOWA

CITY           SKY/WX    TMP DP  RH WIND       PRES   REMARKS
CARROLL *      MOSUNNY   52  39  62 SW10G20   29.62F
CHEROKEE *     MOSUNNY   47  37  68 W3        29.64R
DENISON *      SUNNY     48  37  66 S8        29.61F
LE MARS *      SUNNY     45  36  70 CALM      29.66S
ORANGE CITY *  SUNNY     45  37  76 W6        29.64F
SHELDON *      MOSUNNY   45  41  87 SW8       29.62F
SIOUX CITY     SUNNY     48  36  63 NW6       29.65R
SPENCER        CLOUDY    45  37  73 W9        29.62S
STORM LAKE *   MOSUNNY   46  36  66 W14       29.62R
$$

IAZ055>058-069>071-079>083-090>094-221600-
   SOUTHWEST IOWA

CITY           SKY/WX    TMP DP  RH WIND       PRES   REMARKS
ATLANTIC *     SUNNY     50  39  66 S7        29.65F
CLARINDA *     SUNNY     50  39  66 S7        29.70F
COUNCIL BLFS * SUNNY     55  36  47 SW15      29.64F
CRESTON *      SUNNY     54  36  50 S14       29.69F
HARLAN  *      SUNNY     48  41  76 S12       29.66F
LAMONI         SUNNY     52  38  58 S14       29.71F
RED OAK *      SUNNY     50  39  66 S7        29.67F
SHENANDOAH *   SUNNY     50  37  62 S5        29.69F
$$

IAZ047>049-059>061-072>074-084-221600-
   CENTRAL IOWA

CITY           SKY/WX    TMP DP  RH WIND       PRES   REMARKS
AMES           SUNNY     54  40  59 SW6       29.65F
ANKENY *       SUNNY     57  34  41 SW15G22   29.66F
BOONE *        SUNNY     52  37  58 SW14      29.63F
CHARITON *     SUNNY     55  39  54 SW16G22   29.70F
DES MOINES     MOSUNNY   57  33  40 SW13      29.67F
GRINNELL*      SUNNY     52  39  61 S15       29.68F
KNOXVILLE *    SUNNY     57  36  44 S14G20    29.67F
MARSHALLTOWN   SUNNY     53  37  54 SW12      29.65F
NEWTON *       SUNNY     55  36  47 SW13G20   29.66F
PELLA *        SUNNY     56  38  52 S12       29.70F
PERRY *          N/A     52  40  63 SW6       29.65S
$$

IAZ004>006-015-016-023>025-035-036-221600-
   NORTH CENTRAL IOWA

CITY           SKY/WX    TMP DP  RH WIND       PRES   REMARKS
ALGONA *       CLOUDY    41  37  87 S8        29.60F
CLARION *      MOSUNNY   45  41  87 S9        29.61F
ESTHERVILLE    CLOUDY    46  38  73 W12       29.60S
FORT DODGE *   SUNNY     46  36  66 SW8       29.62F
MASON CITY     SUNNY     46  36  68 SW8       29.62F
FOREST CITY *    N/A     43  37  81 W5        29.61F
WEBSTER CITY * SUNNY     52  39  62 SW14      29.60F
IOWA FALLS *     N/A     51  39  63 S6        29.65S
$$

IAZ007>011-017>019-026>030-037>042-050>054-066-221600-
   NORTHEAST IOWA

CITY           SKY/WX    TMP DP  RH WIND       PRES   REMARKS
CEDAR RAPIDS   SUNNY     54  49  83 S17G24    29.68F
CHARLES CITY * CLOUDY    46  39  76 S10       29.63F
CLINTON *      MOSUNNY   54  54 100 S12       29.76S
DECORAH *      SUNNY     50  36  57 SW7G15    29.63S
DUBUQUE        SUNNY     50  50 100 S18       29.70S
MONTICELLO *   SUNNY     54  50  87 S13       29.70S
OELWEIN *      SUNNY     46  41  81 S9        29.66F
WATERLOO       SUNNY     51  35  54 S8        29.64F
$$

IAZ064-065-067-068-078-221600-
   EAST CENTRAL IOWA

CITY           SKY/WX    TMP DP  RH WIND       PRES   REMARKS
DAVENPORT      SUNNY     55  52  89 S13       29.76S
IOWA CITY      SUNNY     54  51  90 S16       29.73F
MUSCATINE *    MOSUNNY   55  54  94 S10       29.76F
QUAD CITIES    CLOUDY    48  48 100 S10       29.77R FOG
$$

IAZ062-063-075>077-085>089-095>099-221600-
   SOUTHEAST IOWA

CITY           SKY/WX    TMP DP  RH WIND       PRES   REMARKS
BURLINGTON     FOG       54  54 100 SW10      29.78F VSB 3/4
FAIRFIELD *    SUNNY     57  52  82 SW14G21   29.74F
KEOKUK *       FOG       54  54 100 SW9       29.79F VSB 1/2
OTTUMWA        SUNNY     55  49  80 S16       29.72F
WASHINGTON *   SUNNY     57  54  88 SW18      29.75F
$$

ABBREVIATIONS USED IN REMARKS
   TC - TEMPERATURES IN CELSIUS
  WCI - WIND CHILL INDEX
   HX - HEAT INDEX
  VSB - VISIBILITY
$$





USA.gov is the U.S. government's official web portal to all federal, state and local government web resources and services.